QPF
0.00 0.00 0.00 0.00 0.00 0.00 0.00 0.00 0.00 0.00 0.00 0.00 0.00 0.00 0.00 0.00 0.00 0.00 0.00 0.00 0.00 0.00 0.00 0.00 0.00 0.00 0.00 0.00 0.00 0.00 0.00 0.00 0.00 0.00 0.00 0.00 0.00 0.00 0.00 0.00 0.00 0.00 0.00
0.00 0.00 0.00 0.00 0.00 0.00 0.00 0.00 0.00 0.00 0.00 0.00 0.00 0.00 0.00 0.00 0.00 0.00 0.00 0.00 0.00 0.00 0.00 0.00 0.00 0.00 0.00 0.00 0.00 0.00 0.00 0.00 0.00 0.00 0.00 0.00 0.00 0.00 0.01 0.00 0.00 0.00 0.00
0.00 0.00 0.00 0.00 0.00 0.00 0.00 0.00 0.00 0.00 0.00 0.00 0.00 0.00 0.00 0.00 0.00 0.00 0.00 0.00 0.00 0.00 0.00 0.00 0.00 0.00 0.00 0.00 0.00 0.00 0.00 0.00 0.00 0.00 0.00 0.00 0.00 0.02 0.03 0.01 0.00 0.00 0.00
0.00 0.00 0.00 0.00 0.00 0.00 0.00 0.00 0.00 0.00 0.00 0.00 0.00 0.00 0.00 0.00 0.00 0.00 0.00 0.00 0.00 0.00 0.00 0.00 0.00 0.00 0.00 0.00 0.00 0.00 0.00 0.00 0.00 0.02 0.01 0.00 0.06 0.15 0.13 0.04 0.02 0.01 0.00
0.00 0.00 0.00 0.00 0.00 0.00 0.00 0.00 0.00 0.00 0.00 0.00 0.00 0.00 0.00 0.00 0.00 0.00 0.00 0.00 0.00 0.00 0.00 0.00 0.00 0.00 0.00 0.00 0.00 0.00 0.01 0.01 0.01 0.01 0.01 0.02 0.09 0.25 0.19 0.05 0.02 0.02 0.02
0.00 0.00 0.00 0.00 0.00 0.00 0.00 0.00 0.00 0.00 0.00 0.00 0.00 0.00 0.00 0.00 0.00 0.00 0.00 0.00 0.00 0.00 0.00 0.00 0.00 0.00 0.00 0.00 0.00 0.00 0.01 0.01 0.01 0.01 0.02 0.04 0.05 0.27 0.25 0.07 0.02 0.02 0.03
0.00 0.00 0.00 0.00 0.00 0.00 0.00 0.00 0.00 0.00 0.00 0.00 0.00 0.00 0.00 0.00 0.00 0.00 0.00 0.00 0.00 0.00 0.00 0.00 0.00 0.00 0.00 0.00 0.00 0.00 0.00 0.00 0.01 0.05 0.10 0.05 0.13 0.26 0.25 0.07 0.03 0.02 0.01
0.00 0.00 0.00 0.00 0.00 0.00 0.00 0.00 0.00 0.00 0.00 0.00 0.00 0.00 0.00 0.00 0.00 0.00 0.00 0.00 0.00 0.00 0.00 0.00 0.00 0.00 0.00 0.00 0.00 0.00 0.00 0.00 0.00 0.01 0.06 0.09 0.28 0.26 0.19 0.08 0.02 0.03 0.02
0.00 0.00 0.00 0.00 0.00 0.00 0.00 0.00 0.00 0.00 0.00 0.00 0.00 0.00 0.00 0.00 0.00 0.00 0.00 0.00 0.00 0.00 0.00 0.00 0.00 0.00 0.00 0.00 0.00 0.00 0.00 0.00 0.00 0.02 0.04 0.17 0.38 0.17 0.07 0.05 0.03 0.04 0.04
0.00 0.00 0.00 0.00 0.00 0.00 0.00 0.00 0.00 0.00 0.00 0.00 0.00 0.00 0.00 0.00 0.00 0.00 0.00 0.00 0.00 0.00 0.00 0.00 0.00 0.00 0.00 0.00 0.00 0.01 0.00 0.00 0.00 0.00 0.02 0.28 0.23 0.13 0.10 0.05 0.02 0.03 0.15
0.00 0.00 0.00 0.00 0.00 0.00 0.00 0.00 0.00 0.00 0.00 0.00 0.00 0.00 0.00 0.00 0.00 0.00 0.00 0.00 0.00 0.00 0.00 0.00 0.00 0.00 0.00 0.00 0.00 0.00 0.00 0.02 0.00 0.00 0.01 0.19 0.09 0.06 0.08 0.03 0.03 0.04 0.17
0.00 0.00 0.00 0.00 0.00 0.00 0.00 0.00 0.00 0.00 0.00 0.00 0.00 0.00 0.00 0.00 0.00 0.00 0.00 0.00 0.00 0.00 0.00 0.00 0.00 0.00 0.00 0.00 0.00 0.00 0.01 0.01 0.00 0.00 0.01 0.06 0.06 0.06 0.03 0.01 0.02 0.07 0.17
0.00 0.00 0.00 0.00 0.00 0.00 0.00 0.00 0.00 0.00 0.00 0.00 0.00 0.00 0.00 0.00 0.00 0.00 0.00 0.00 0.00 0.00 0.00 0.00 0.00 0.00 0.00 0.00 0.00 0.00 0.00 0.00 0.00 0.00 0.00 0.01 0.01 0.01 0.01 0.01 0.06 0.14 0.15
0.00 0.00 0.00 0.00 0.00 0.00 0.00 0.00 0.00 0.00 0.00 0.00 0.00 0.00 0.00 0.00 0.00 0.00 0.00 0.00 0.00 0.00 0.00 0.00 0.00 0.00 0.00 0.00 0.00 0.00 0.00 0.00 0.01 0.00 0.00 0.00 0.00 0.00 0.00 0.03 0.19 0.26 0.32
0.00 0.00 0.00 0.00 0.00 0.00 0.00 0.00 0.00 0.00 0.00 0.00 0.00 0.00 0.00 0.00 0.00 0.00 0.00 0.00 0.00 0.00 0.00 0.00 0.00 0.00 0.00 0.00 0.00 0.00 0.00 0.00 0.00 0.00 0.00 0.00 0.00 0.00 0.00 0.02 0.15 0.24 0.39
0.00 0.00 0.00 0.00 0.00 0.00 0.00 0.00 0.00 0.00 0.00 0.00 0.00 0.00 0.00 0.00 0.00 0.00 0.00 0.00 0.00 0.00 0.00 0.00 0.00 0.00 0.00 0.00 0.00 0.00 0.00 0.00 0.00 0.00 0.00 0.00 0.00 0.00 0.03 0.02 0.05 0.14 0.34
0.00 0.00 0.00 0.00 0.00 0.00 0.00 0.00 0.00 0.00 0.00 0.00 0.00 0.00 0.00 0.00 0.00 0.00 0.00 0.00 0.00 0.00 0.00 0.00 0.00 0.00 0.00 0.00 0.00 0.00 0.00 0.00 0.00 0.00 0.00 0.01 0.00 0.01 0.06 0.06 0.04 0.09 0.19
0.00 0.01 0.01 0.01 0.01 0.01 0.01 0.01 0.01 0.01 0.01 0.00 0.00 0.00 0.00 0.00 0.00 0.00 0.00 0.00 0.00 0.00 0.00 0.00 0.00 0.00 0.00 0.00 0.00 0.00 0.00 0.00 0.00 0.00 0.00 0.02 0.03 0.02 0.06 0.09 0.04 0.05 0.05
0.07 0.07 0.07 0.05 0.03 0.02 0.02 0.02 0.02 0.01 0.00 0.00 0.00 0.00 0.00 0.00 0.00 0.00 0.00 0.00 0.00 0.00 0.00 0.00 0.00 0.00 0.00 0.00 0.00 0.00 0.00 0.00 0.00 0.00 0.00 0.01 0.03 0.05 0.04 0.08 0.06 0.03 0.02
0.14 0.11 0.08 0.07 0.05 0.03 0.02 0.01 0.01 0.00 0.00 0.00 0.00 0.00 0.00 0.00 0.00 0.00 0.00 0.00 0.00 0.00 0.00 0.00 0.00 0.00 0.00 0.00 0.00 0.00 0.00 0.00 0.00 0.00 0.01 0.02 0.05 0.07 0.08 0.07 0.06 0.02 0.01
0.06 0.05 0.02 0.01 0.01 0.00 0.00 0.00 0.00 0.00 0.00 0.00 0.00 0.00 0.00 0.00 0.00 0.00 0.00 0.00 0.00 0.00 0.00 0.00 0.00 0.00 0.00 0.00 0.00 0.00 0.00 0.00 0.00 0.00 0.01 0.02 0.08 0.07 0.17 0.08 0.03 0.01 0.00
0.02 0.00 0.00 0.00 0.00 0.00 0.00 0.00 0.00 0.00 0.00 0.00 0.00 0.00 0.00 0.00 0.00 0.00 0.00 0.00 0.00 0.00 0.00 0.00 0.00 0.00 0.00 0.00 0.00 0.00 0.00 0.00 0.00 0.00 0.01 0.01 0.05 0.08 0.14 0.21 0.05 0.00 0.00
0.00 0.00 0.00 0.00 0.00 0.00 0.00 0.00 0.00 0.00 0.00 0.00 0.00 0.00 0.00 0.00 0.00 0.00 0.00 0.00 0.00 0.00 0.00 0.00 0.00 0.00 0.00 0.00 0.00 0.00 0.00 0.00 0.00 0.01 0.03 0.06 0.05 0.09 0.07 0.16 0.10 0.01 0.00
0.00 0.00 0.00 0.00 0.00 0.00 0.00 0.00 0.00 0.00 0.00 0.00 0.00 0.00 0.00 0.00 0.00 0.00 0.00 0.00 0.00 0.00 0.00 0.00 0.00 0.00 0.00 0.00 0.00 0.00 0.00 0.00 0.00 0.01 0.03 0.06 0.10 0.11 0.04 0.09 0.09 0.01 0.00
0.00 0.00 0.00 0.00 0.00 0.00 0.00 0.00 0.00 0.00 0.00 0.00 0.00 0.00 0.00 0.00 0.00 0.00 0.00 0.00 0.00 0.00 0.00 0.00 0.00 0.00 0.00 0.00 0.00 0.00 0.00 0.00 0.00 0.02 0.03 0.07 0.17 0.20 0.07 0.05 0.08 0.02 0.01
0.00 0.00 0.00 0.00 0.00 0.00 0.00 0.00 0.00 0.00 0.00 0.00 0.00 0.00 0.00 0.00 0.00 0.00 0.00 0.00 0.00 0.00 0.00 0.00 0.00 0.00 0.00 0.00 0.00 0.00 0.00 0.01 0.01 0.02 0.04 0.09 0.21 0.26 0.16 0.07 0.07 0.03 0.01
MSLP
1006.25 1006.44 1006.67 1007.32 1008.41 1009.49 1010.37 1011.39 1012.24 1013.22 1014.19 1015.11 1015.70 1016.69 1017.28 1017.86 1018.26 1018.64 1018.90 1019.14 1019.35 1019.40 1019.50 1019.50 1019.28 1019.22 1019.02 1018.83 1018.72 1018.51 1018.00 1017.52 1016.22 1014.26 1014.44 1014.12 1013.58 1013.04 1012.66 1012.46 1012.10 1011.69 1011.16
1005.32 1006.09 1006.61 1006.99 1007.60 1008.38 1009.37 1010.46 1011.50 1012.42 1013.44 1014.24 1014.95 1015.81 1016.57 1017.20 1017.68 1018.05 1018.33 1018.47 1018.69 1018.83 1018.81 1018.76 1018.55 1018.48 1018.32 1018.18 1017.95 1017.55 1017.12 1016.74 1016.00 1014.26 1013.87 1013.26 1012.79 1012.19 1011.68 1011.38 1010.97 1010.31 1009.77
1005.06 1005.40 1006.15 1006.81 1007.06 1007.46 1008.46 1009.71 1010.91 1011.73 1012.75 1013.74 1014.46 1015.10 1015.81 1016.44 1017.03 1017.46 1017.78 1017.95 1018.14 1018.20 1018.16 1018.03 1017.92 1017.86 1017.53 1017.29 1017.08 1016.69 1016.37 1015.88 1015.35 1014.28 1012.95 1012.65 1011.83 1011.08 1010.41 1009.96 1009.35 1008.75 1008.29
1004.69 1004.94 1005.16 1005.93 1006.44 1007.04 1007.82 1009.00 1010.01 1011.04 1011.98 1012.95 1013.81 1014.54 1015.19 1015.76 1016.30 1016.75 1017.17 1017.36 1017.48 1017.53 1017.45 1017.43 1017.29 1017.13 1016.88 1016.67 1016.24 1015.82 1015.42 1014.87 1014.35 1013.51 1012.37 1011.34 1010.75 1010.02 1009.48 1008.53 1007.39 1007.02 1006.96
1004.07 1004.44 1004.69 1005.34 1006.09 1006.73 1007.44 1008.43 1009.45 1010.48 1011.33 1012.30 1013.24 1014.08 1014.71 1015.26 1015.70 1016.11 1016.49 1016.65 1016.73 1016.75 1016.75 1016.68 1016.59 1016.46 1016.20 1015.79 1015.26 1014.77 1014.44 1014.04 1013.43 1012.56 1011.55 1010.45 1009.69 1008.82 1008.04 1007.00 1005.99 1006.01 1005.87
1003.23 1003.48 1004.26 1005.04 1005.55 1006.05 1006.86 1007.80 1008.81 1009.92 1010.96 1011.79 1012.58 1013.38 1014.20 1014.74 1015.06 1015.47 1015.80 1015.93 1015.99 1016.08 1015.98 1015.91 1015.97 1015.84 1015.51 1015.15 1014.69 1014.44 1014.06 1013.20 1012.62 1011.87 1010.84 1009.73 1008.39 1007.98 1007.00 1005.99 1005.18 1005.19 1005.03
1002.54 1002.76 1003.26 1004.24 1004.88 1005.38 1006.23 1007.27 1008.09 1009.00 1010.30 1011.23 1012.09 1012.92 1013.67 1014.22 1014.55 1014.92 1015.18 1015.21 1015.31 1015.37 1015.41 1015.49 1015.40 1015.08 1014.87 1014.59 1014.24 1013.76 1013.13 1012.56 1011.72 1010.84 1009.80 1008.74 1007.41 1006.33 1005.62 1004.70 1004.07 1004.09 1003.65
1001.83 1001.89 1002.36 1003.00 1004.00 1004.85 1005.30 1006.36 1007.53 1008.45 1009.52 1010.57 1011.47 1012.37 1013.14 1013.73 1014.11 1014.40 1014.57 1014.66 1014.79 1014.85 1014.91 1014.95 1014.87 1014.55 1014.28 1013.83 1013.22 1012.62 1012.01 1011.33 1010.42 1009.68 1008.80 1007.68 1006.37 1005.08 1004.23 1003.52 1003.07 1003.24 1003.34
1000.63 1000.77 1001.27 1001.83 1002.85 1003.94 1004.34 1005.29 1006.59 1007.69 1008.78 1009.79 1010.86 1011.89 1012.54 1013.20 1013.64 1013.86 1014.11 1014.29 1014.30 1014.24 1014.32 1014.33 1014.17 1013.87 1013.42 1012.92 1012.31 1011.80 1011.11 1010.07 1009.29 1008.59 1007.68 1006.73 1005.21 1003.75 1001.92 1002.09 1002.44 1002.85 1003.01
999.58 1000.08 1000.53 1001.09 1001.79 1002.93 1003.75 1004.71 1006.07 1007.34 1008.53 1009.52 1010.56 1011.37 1012.02 1012.57 1013.12 1013.37 1013.64 1013.82 1013.73 1013.72 1013.69 1013.59 1013.42 1013.22 1012.82 1012.43 1011.84 1011.17 1010.49 1009.54 1008.84 1007.71 1006.75 1005.54 1004.23 1002.70 1001.87 1001.71 1001.89 1002.27 1002.99
998.93 999.36 999.83 1000.29 1001.12 1002.32 1003.43 1004.37 1005.64 1006.96 1008.19 1009.32 1010.31 1011.15 1011.60 1012.12 1012.62 1012.91 1013.13 1013.18 1013.19 1013.15 1013.05 1012.86 1012.70 1012.60 1012.34 1011.88 1011.38 1010.80 1010.39 1009.31 1008.61 1007.76 1006.70 1005.58 1004.35 1002.65 1001.75 1001.90 1002.13 1002.50 1002.66
997.57 998.20 999.10 999.89 1000.83 1001.93 1002.78 1004.04 1005.30 1006.57 1007.82 1008.98 1010.00 1010.78 1011.42 1011.79 1012.13 1012.39 1012.58 1012.66 1012.68 1012.57 1012.49 1012.40 1012.32 1012.12 1011.79 1011.43 1010.99 1010.57 1009.85 1009.08 1008.59 1007.58 1006.60 1005.47 1004.62 1003.84 1003.05 1001.91 1001.45 1001.53 1001.56
996.66 997.46 998.59 999.66 1000.69 1001.64 1002.51 1003.70 1005.13 1006.26 1007.48 1008.67 1009.50 1010.12 1010.86 1011.39 1011.75 1011.96 1012.13 1012.24 1012.31 1012.17 1012.13 1012.02 1011.83 1011.64 1011.48 1011.04 1010.74 1010.16 1009.69 1009.10 1008.45 1007.60 1006.55 1005.59 1004.79 1003.96 1002.77 1002.55 1001.83 1001.41 1001.28
996.73 997.74 998.62 999.39 1000.70 1001.65 1002.70 1003.59 1004.88 1006.14 1007.30 1008.34 1009.07 1009.68 1010.33 1010.85 1011.27 1011.65 1011.87 1011.96 1011.97 1011.86 1011.74 1011.61 1011.50 1011.46 1011.23 1010.82 1010.35 1010.05 1009.58 1009.08 1008.30 1007.77 1006.96 1005.57 1004.62 1003.93 1003.61 1002.03 1002.20 1002.35 1002.49
997.75 998.14 999.05 998.84 1000.74 1001.84 1002.74 1003.74 1004.87 1006.05 1006.72 1007.85 1008.60 1009.19 1009.72 1010.26 1010.65 1011.06 1011.33 1011.39 1011.44 1011.37 1011.32 1011.23 1011.20 1011.18 1010.80 1010.31 1010.06 1009.68 1009.37 1008.93 1008.30 1007.25 1007.06 1005.92 1004.64 1004.00 1002.98 1002.82 1002.86 1002.59 1002.82
997.88 998.47 998.89 999.24 1000.86 1001.91 1003.03 1004.58 1005.82 1006.33 1007.30 1007.91 1008.43 1008.82 1009.47 1009.78 1010.26 1010.61 1010.74 1010.89 1011.01 1010.93 1010.83 1010.90 1010.90 1010.82 1010.46 1010.05 1009.74 1009.41 1009.03 1008.68 1008.46 1007.38 1006.75 1006.18 1005.46 1004.88 1003.73 1002.62 1002.92 1003.20 1003.73
998.61 998.70 999.18 1000.03 1001.30 1002.21 1003.54 1004.76 1006.16 1007.25 1007.66 1008.21 1008.60 1008.87 1009.25 1009.69 1009.95 1010.18 1010.37 1010.54 1010.61 1010.62 1010.70 1010.75 1010.69 1010.52 1010.27 1009.92 1009.47 1009.23 1008.85 1008.23 1008.37 1007.89 1006.95 1006.58 1005.88 1005.09 1004.40 1003.02 1003.34 1003.61 1004.07
999.84 999.89 1000.43 1001.17 1002.26 1003.34 1004.37 1005.60 1006.63 1007.32 1008.00 1008.47 1008.81 1008.89 1009.17 1009.44 1009.77 1010.05 1010.28 1010.34 1010.41 1010.57 1010.59 1010.54 1010.37 1010.21 1010.00 1009.72 1009.09 1008.92 1008.79 1008.11 1007.94 1007.76 1006.95 1006.25 1005.94 1005.27 1004.57 1003.34 1003.26 1003.59 1004.30
1001.54 1001.81 1001.97 1002.72 1003.75 1004.39 1005.53 1006.34 1007.11 1007.77 1007.62 1008.37 1009.10 1009.14 1009.07 1009.34 1009.64 1009.94 1010.11 1010.17 1010.20 1010.22 1010.18 1010.10 1010.01 1009.87 1009.72 1009.32 1008.90 1008.30 1008.55 1008.27 1007.76 1007.44 1007.03 1006.33 1005.79 1005.46 1004.58 1003.62 1003.27 1003.81 1004.17
1002.61 1002.85 1003.22 1004.01 1004.76 1005.66 1006.50 1007.16 1007.52 1007.40 1007.68 1008.48 1008.74 1008.69 1009.10 1009.45 1009.63 1009.81 1009.90 1009.98 1010.04 1009.91 1009.78 1009.68 1009.58 1009.48 1009.39 1009.00 1008.68 1008.07 1007.82 1007.81 1007.55 1007.22 1006.82 1006.30 1005.98 1005.71 1004.82 1004.05 1003.18 1003.54 1004.13
1002.99 1003.58 1004.31 1004.96 1005.61 1006.15 1006.62 1006.71 1006.92 1007.39 1008.06 1008.57 1008.52 1008.67 1008.86 1009.04 1009.29 1009.42 1009.47 1009.66 1009.66 1009.58 1009.41 1009.29 1009.28 1009.16 1008.90 1008.69 1008.38 1007.92 1007.42 1007.19 1007.22 1007.19 1006.41 1005.81 1005.78 1004.92 1004.53 1003.98 1003.03 1003.03 1003.53
1003.37 1004.18 1004.75 1005.13 1005.45 1005.76 1006.33 1006.77 1007.18 1007.63 1008.13 1008.36 1008.41 1008.57 1008.69 1008.86 1009.07 1009.13 1009.23 1009.24 1009.36 1009.34 1009.18 1009.02 1008.97 1008.79 1008.47 1008.36 1008.06 1007.75 1007.22 1006.65 1006.52 1006.77 1006.85 1005.91 1004.94 1004.82 1004.16 1003.61 1002.81 1002.37 1003.02
1003.61 1004.21 1004.61 1005.10 1005.63 1006.19 1006.66 1006.98 1007.28 1007.76 1008.09 1008.15 1008.38 1008.69 1008.82 1008.91 1009.05 1009.16 1009.10 1009.12 1009.14 1009.07 1008.87 1008.82 1008.68 1008.39 1008.00 1007.87 1007.59 1007.43 1007.15 1006.63 1006.05 1005.85 1005.58 1005.36 1004.89 1004.31 1003.95 1003.33 1002.38 1001.69 1002.31
1003.75 1004.38 1004.97 1005.59 1006.01 1006.40 1007.14 1007.50 1007.62 1007.85 1008.10 1008.28 1008.44 1008.71 1008.89 1008.95 1009.06 1009.05 1009.01 1008.94 1008.88 1008.69 1008.62 1008.49 1008.25 1007.98 1007.65 1007.41 1007.12 1006.81 1006.55 1006.33 1006.12 1005.64 1005.15 1004.56 1003.83 1003.43 1002.93 1002.55 1002.11 1001.28 1001.72
1004.08 1004.91 1005.75 1006.08 1006.58 1006.93 1007.07 1007.43 1007.80 1007.99 1008.09 1008.23 1008.51 1008.74 1008.79 1008.88 1008.84 1008.77 1008.72 1008.62 1008.51 1008.36 1008.21 1007.95 1007.81 1007.50 1007.16 1006.93 1006.63 1006.28 1005.99 1005.94 1005.74 1005.32 1004.79 1003.98 1003.06 1002.65 1002.21 1001.95 1001.67 1000.94 1001.36
1005.11 1005.69 1006.15 1006.70 1007.08 1007.33 1007.61 1007.81 1008.03 1008.15 1008.23 1008.39 1008.58 1008.74 1008.77 1008.68 1008.58 1008.52 1008.46 1008.42 1008.26 1008.17 1007.98 1007.65 1007.42 1007.10 1006.74 1006.45 1006.16 1005.96 1005.58 1005.32 1005.02 1004.73 1004.36 1003.39 1002.52 1001.57 1001.29 1001.17 1000.90 1000.30 1000.62
Thickness
5660 5664 5667 5664 5658 5651 5646 5640 5635 5628 5621 5614 5610 5600 5595 5589 5584 5579 5575 5570 5565 5560 5554 5548 5543 5537 5532 5525 5516 5507 5498 5486 5486 5498 5477 5468 5464 5465 5465 5463 5464 5467 5469
5655 5653 5652 5653 5651 5648 5643 5636 5629 5623 5616 5611 5606 5598 5590 5584 5579 5574 5569 5565 5559 5553 5548 5541 5537 5531 5524 5516 5507 5497 5487 5472 5464 5471 5466 5461 5459 5459 5461 5460 5460 5462 5463
5644 5644 5641 5639 5642 5643 5638 5630 5622 5618 5610 5603 5598 5593 5587 5580 5574 5569 5563 5559 5553 5547 5541 5536 5530 5523 5517 5509 5499 5489 5475 5461 5450 5449 5458 5453 5455 5457 5459 5459 5459 5459 5459
5631 5636 5637 5633 5634 5633 5630 5623 5618 5612 5605 5598 5592 5587 5581 5576 5570 5564 5558 5553 5547 5541 5535 5530 5524 5517 5511 5502 5492 5480 5466 5452 5440 5436 5446 5453 5453 5455 5454 5457 5460 5455 5458
5621 5626 5628 5625 5622 5620 5620 5615 5610 5605 5599 5593 5586 5579 5574 5569 5564 5559 5553 5548 5543 5537 5530 5525 5519 5511 5504 5496 5486 5475 5459 5444 5430 5428 5440 5449 5453 5458 5459 5460 5459 5453 5463
5614 5619 5618 5614 5613 5613 5610 5607 5604 5597 5591 5586 5580 5574 5567 5562 5558 5553 5548 5544 5538 5532 5527 5522 5513 5505 5498 5487 5476 5461 5444 5432 5420 5427 5437 5447 5457 5456 5459 5461 5462 5460 5472
5604 5610 5613 5610 5609 5607 5603 5599 5598 5594 5584 5579 5573 5567 5560 5555 5551 5547 5543 5539 5534 5528 5522 5515 5508 5501 5493 5482 5469 5453 5440 5428 5430 5436 5444 5452 5458 5463 5463 5466 5469 5473 5500
5590 5601 5605 5606 5604 5601 5601 5597 5591 5586 5580 5573 5567 5560 5554 5548 5544 5541 5537 5533 5527 5521 5516 5509 5503 5496 5487 5478 5467 5454 5444 5440 5443 5447 5451 5456 5462 5468 5470 5472 5481 5494 5511
5584 5594 5599 5602 5600 5596 5597 5596 5589 5581 5575 5569 5561 5553 5548 5542 5538 5534 5530 5525 5521 5516 5510 5504 5499 5492 5484 5477 5468 5455 5451 5452 5453 5457 5460 5463 5469 5476 5486 5486 5494 5511 5527
5578 5583 5589 5593 5596 5591 5590 5588 5580 5573 5566 5561 5553 5547 5542 5537 5531 5527 5523 5519 5516 5511 5506 5501 5495 5488 5481 5472 5464 5457 5455 5458 5458 5465 5468 5472 5478 5485 5488 5499 5513 5527 5535
5568 5574 5580 5585 5588 5584 5579 5578 5571 5565 5558 5551 5544 5538 5535 5531 5525 5521 5517 5514 5511 5507 5503 5498 5492 5485 5476 5469 5462 5457 5454 5460 5460 5465 5470 5474 5478 5489 5498 5508 5521 5529 5542
5568 5572 5573 5575 5576 5574 5572 5568 5564 5557 5550 5542 5536 5531 5525 5522 5518 5515 5511 5509 5506 5503 5499 5493 5487 5481 5473 5466 5460 5456 5457 5461 5461 5467 5472 5476 5479 5483 5498 5518 5536 5551 5562
5562 5566 5562 5565 5565 5564 5563 5559 5552 5548 5541 5533 5529 5526 5520 5515 5511 5508 5505 5502 5499 5497 5493 5488 5483 5477 5469 5463 5458 5456 5457 5459 5462 5469 5475 5481 5488 5499 5516 5529 5546 5560 5574
5549 5550 5552 5557 5553 5553 5551 5550 5543 5536 5530 5524 5521 5518 5515 5510 5505 5500 5497 5494 5492 5489 5486 5483 5478 5471 5464 5458 5456 5454 5457 5458 5465 5470 5474 5488 5501 5512 5521 5543 5548 5558 5571
5529 5536 5539 5548 5540 5540 5539 5536 5532 5526 5525 5518 5514 5512 5510 5504 5500 5495 5492 5490 5487 5484 5481 5477 5471 5464 5460 5457 5452 5455 5456 5458 5465 5477 5478 5489 5507 5518 5533 5542 5551 5564 5569
5520 5526 5534 5539 5531 5529 5526 5520 5513 5513 5509 5507 5506 5505 5500 5498 5493 5489 5487 5484 5481 5478 5476 5470 5465 5459 5455 5454 5451 5453 5458 5459 5461 5477 5484 5492 5505 5515 5530 5552 5555 5559 5563
5507 5517 5522 5524 5519 5517 5513 5509 5499 5496 5497 5495 5494 5493 5492 5489 5486 5483 5480 5477 5474 5471 5467 5463 5457 5451 5447 5449 5448 5450 5455 5461 5461 5469 5483 5489 5502 5516 5527 5548 5551 5557 5561
5488 5497 5502 5502 5503 5502 5498 5491 5486 5483 5481 5480 5482 5484 5482 5481 5477 5474 5471 5469 5467 5462 5458 5454 5449 5444 5442 5441 5445 5445 5449 5459 5462 5467 5479 5492 5498 5513 5525 5545 5554 5557 5560
5465 5472 5481 5484 5481 5482 5478 5475 5472 5471 5474 5470 5469 5471 5473 5471 5468 5465 5464 5461 5459 5457 5453 5448 5442 5437 5434 5435 5437 5443 5443 5450 5458 5464 5473 5485 5496 5505 5522 5536 5550 5553 5561
5450 5461 5464 5464 5464 5462 5461 5461 5462 5466 5466 5462 5462 5466 5462 5460 5459 5458 5456 5454 5451 5450 5446 5441 5436 5431 5427 5427 5427 5435 5442 5446 5451 5460 5468 5479 5488 5496 5512 5528 5546 5551 5555
5443 5448 5449 5451 5453 5454 5454 5458 5460 5457 5454 5451 5455 5456 5455 5455 5455 5454 5453 5448 5445 5443 5439 5434 5428 5424 5421 5420 5420 5428 5437 5444 5447 5453 5466 5479 5484 5498 5508 5523 5545 5555 5557
5439 5439 5442 5446 5449 5450 5449 5450 5451 5448 5444 5444 5447 5448 5448 5447 5447 5447 5445 5442 5439 5434 5430 5426 5420 5416 5416 5414 5415 5422 5431 5441 5447 5452 5457 5472 5488 5494 5506 5520 5542 5556 5560
5434 5435 5440 5441 5442 5442 5442 5441 5440 5436 5436 5439 5438 5438 5438 5438 5438 5437 5436 5434 5430 5425 5421 5416 5411 5410 5411 5410 5411 5417 5425 5434 5445 5453 5461 5469 5481 5493 5503 5515 5534 5556 5564
5431 5431 5431 5432 5433 5432 5426 5425 5427 5427 5428 5429 5430 5429 5429 5430 5429 5429 5428 5425 5421 5416 5411 5406 5402 5403 5404 5404 5407 5416 5424 5431 5437 5448 5460 5472 5484 5496 5506 5516 5531 5555 5564
5424 5422 5418 5420 5417 5417 5420 5420 5420 5421 5422 5423 5422 5422 5423 5424 5424 5423 5421 5417 5412 5407 5402 5397 5393 5394 5395 5396 5401 5412 5421 5427 5435 5446 5458 5472 5486 5497 5510 5520 5532 5552 5563
5411 5410 5410 5409 5410 5412 5412 5413 5414 5416 5417 5418 5418 5417 5418 5419 5418 5415 5412 5407 5401 5395 5389 5387 5384 5382 5382 5384 5393 5405 5416 5426 5436 5446 5456 5472 5487 5504 5514 5522 5532 5555 5566